EW3230 Weather Reports


Display with metric or nautical units.
time (UTC)temp
F
wind
direction
speed
MPH
gust
MPH
rain 1hr
in
rain 24hr
in
rain mn
in
humidity
%
barometer
mb
20260905000233 72 75 0.0 0.0 0.00 0.00 0.00 75 1008.9
20260904235245 73 75 0.0 1.0 0.00 0.00 0.00 76 1008.8
20260904233233 73 65 0.0 2.0 0.00 0.00 0.00 75 1008.7
20260904232239 75 6 0.0 0.0 0.00 0.00 0.00 73 1008.4
20260904232234 74 78 0.0 2.0 0.00 0.00 0.00 74 1008.6
20260904230231 75 6 0.0 1.0 0.00 0.00 0.00 74 1008.4
20260904225232 76 46 0.0 1.0 0.00 0.00 0.00 74 1008.4
20260904224231 76 88 0.0 0.0 0.00 0.00 0.00 75 1008.5
20260904223232 77 88 0.0 0.0 0.00 0.00 0.00 75 1008.3
20260904222232 77 88 0.0 0.0 0.00 0.00 0.00 75 1008.2
20260904221231 78 88 0.0 0.0 0.00 0.00 0.00 75 1008.1
20260904220233 78 88 0.0 0.0 0.00 0.00 0.00 75 1008.2
20260904215230 78 88 0.0 0.0 0.00 0.00 0.00 75 1008.1
20260904214231 79 87 0.0 0.0 0.00 0.00 0.00 74 1008.1
20260904213231 80 87 0.0 1.0 0.00 0.00 0.00 74 1008.0
20260904212230 80 80 0.0 1.0 0.00 0.00 0.00 73 1008.0
20260904211230 81 110 0.0 2.0 0.00 0.00 0.00 72 1008.0
20260904210735 82 74 0.0 1.0 0.00 0.00 0.00 71 1008.1
20260904205230 82 46 0.0 3.0 0.00 0.00 0.00 70 1008.0
20260904204232 84 11 0.0 2.0 0.00 0.00 0.00 67 1008.1
20260904203232 84 156 0.0 1.0 0.00 0.00 0.00 68 1008.0
20260904202232 82 90 0.0 3.0 0.00 0.00 0.00 71 1008.0
20260904201734 81 110 0.0 1.0 0.00 0.00 0.00 72 1008.0
20260904200231 81 103 0.0 2.0 0.00 0.00 0.00 73 1008.0
20260904195231 81 41 0.0 1.0 0.00 0.00 0.00 71 1008.0
20260904194232 80 79 0.0 1.0 0.00 0.00 0.00 70 1008.2
20260904193232 80 75 0.0 3.0 0.00 0.00 0.00 70 1008.1
20260904192232 81 119 1.0 4.0 0.00 0.00 0.00 69 1008.1
20260904191233 82 70 1.0 8.0 0.00 0.00 0.00 66 1008.2
20260904190233 82 79 0.0 2.0 0.00 0.00 0.00 70 1008.1
20260904185230 81 43 1.0 6.0 0.00 0.00 0.00 70 1008.1
20260904184231 82 77 1.0 4.0 0.00 0.00 0.00 66 1008.1
20260904183239 83 356 0.0 2.0 0.00 0.00 0.00 62 1008.2
20260904183233 83 294 1.0 4.0 0.00 0.00 0.00 63 1008.1
20260904182341 82 61 0.0 4.0 0.00 0.00 0.00 65 1008.2
20260904180228 82 253 0.0 4.0 0.00 0.00 0.00 63 1008.4
20260904175226 82 44 0.0 3.0 0.00 0.00 0.00 66 1008.4
20260904174227 81 260 0.0 3.0 0.00 0.00 0.00 65 1008.4
20260904173727 81 293 1.0 4.0 0.00 0.00 0.00 65 1008.6
20260904172226 81 99 0.0 5.0 0.00 0.00 0.00 64 1008.5
20260904171224 81 273 1.0 5.0 0.00 0.00 0.00 67 1008.5
20260904170727 81 89 0.0 6.0 0.00 0.00 0.00 68 1008.5
20260904165221 81 235 0.0 3.0 0.00 0.00 0.00 69 1008.7
20260904164218 81 239 1.0 6.0 0.00 0.00 0.00 68 1008.8
20260904163218 80 343 1.0 6.0 0.00 0.00 0.00 71 1008.9
20260904162221 80 221 1.0 4.0 0.00 0.00 0.00 71 1009.1
20260904161218 80 72 1.0 6.0 0.00 0.00 0.00 72 1009.0
20260904160231 79 237 1.0 5.0 0.00 0.00 0.00 72 1009.2
20260904155218 78 52 1.0 3.0 0.00 0.00 0.00 73 1009.3
20260904154218 78 302 0.0 4.0 0.00 0.00 0.00 74 1009.2
20260904153219 77 232 1.0 3.0 0.00 0.00 0.00 74 1009.2
20260904152219 77 327 1.0 7.0 0.00 0.00 0.00 74 1009.3
20260904151219 76 79 1.0 6.0 0.00 0.00 0.00 74 1009.5
20260904150220 76 216 1.0 5.0 0.00 0.00 0.00 74 1009.6
20260904145217 76 217 1.0 7.0 0.00 0.00 0.00 73 1009.6
20260904144217 75 79 1.0 7.0 0.00 0.00 0.00 71 1009.6
20260904143218 74 91 1.0 6.0 0.00 0.00 0.00 69 1009.6
20260904142212 74 75 2.0 6.0 0.00 0.00 0.00 70 1009.7
20260904141214 74 83 1.0 6.0 0.00 0.00 0.00 65 1009.8
20260904140215 73 105 1.0 5.0 0.00 0.00 0.00 61 1009.9
20260904135214 72 285 1.0 3.0 0.00 0.00 0.00 54 1010.0
20260904134218 71 75 1.0 5.0 0.00 0.00 0.00 53 1009.8
20260904134212 71 52 1.0 5.0 0.00 0.00 0.00 53 1009.8
20260904132212 71 78 0.0 3.0 0.00 0.00 0.00 54 1009.8
20260904131213 70 324 0.0 1.0 0.00 0.00 0.00 54 1009.8
20260904130716 70 232 0.0 1.0 0.00 0.01 0.00 55 1009.8
20260904125215 70 231 0.0 1.0 0.00 0.01 0.00 55 1009.9
20260904124713 69 298 0.0 2.0 0.00 0.03 0.00 55 1009.9
20260904123712 69 22 0.0 0.0 0.00 0.04 0.00 56 1009.9
20260904122209 69 23 0.0 0.0 0.00 0.04 0.00 56 1009.9
20260904121209 68 23 0.0 0.0 0.00 0.04 0.00 56 1010.1
20260904120208 67 23 0.0 0.0 0.00 0.05 0.00 57 1010.1
20260904115215 66 22 0.0 0.0 0.00 0.10 0.00 57 1010.2
20260904115209 66 23 0.0 0.0 0.00 0.06 0.00 57 1010.2
20260904113208 65 22 0.0 0.0 0.00 0.10 0.00 57 1010.1
20260904112208 65 22 0.0 0.0 0.00 0.10 0.00 57 1010.0
20260904111204 65 22 0.0 0.0 0.00 0.10 0.00 57 1010.0
20260904110205 65 22 0.0 0.0 0.00 0.10 0.00 57 1010.0
20260904105203 65 22 0.0 0.0 0.00 0.10 0.00 57 1009.9
20260904104203 65 22 0.0 0.0 0.00 0.10 0.00 57 1009.9
20260904103204 65 22 0.0 0.0 0.00 0.10 0.00 57 1009.9
20260904102704 65 22 0.0 0.0 0.00 0.10 0.00 58 1009.8
20260904101704 64 23 0.0 0.0 0.00 0.12 0.00 58 1009.8
20260904100204 64 23 0.0 0.0 0.00 0.21 0.00 58 1009.7
20260904095202 64 23 0.0 0.0 0.00 0.23 0.00 58 1009.6
20260904094156 64 22 0.0 0.0 0.00 0.26 0.00 58 1009.6
20260904093157 64 22 0.0 0.0 0.00 0.26 0.00 58 1009.6
20260904092157 64 22 0.0 0.0 0.00 0.27 0.00 58 1009.5
20260904091158 64 22 0.0 0.0 0.00 0.27 0.00 58 1009.5
20260904090157 64 22 0.0 0.0 0.00 0.28 0.00 57 1009.6
20260904085158 64 22 0.0 1.0 0.00 0.28 0.00 57 1009.7
20260904084156 64 23 0.0 0.0 0.00 0.28 0.00 57 1009.7
20260904083156 64 22 0.0 0.0 0.00 0.28 0.00 57 1009.7
20260904082156 64 23 0.0 0.0 0.00 0.28 0.00 57 1009.7
20260904081652 64 23 0.0 0.0 0.00 0.29 0.00 57 1009.7
20260904080152 64 23 0.0 0.0 0.00 0.29 0.00 57 1009.6
20260904075151 65 23 0.0 0.0 0.00 0.29 0.00 57 1009.8
20260904074150 65 23 0.0 0.0 0.00 0.29 0.00 57 1009.8
20260904073152 65 23 0.0 0.0 0.00 0.29 0.00 57 1010.0
20260904072153 65 23 0.0 0.0 0.00 0.29 0.00 57 1010.1
20260904071152 65 23 0.0 0.0 0.00 0.29 0.00 57 1010.2
20260904070152 65 23 0.0 0.0 0.00 0.29 0.00 57 1010.3
20260904065149 65 23 0.0 0.0 0.00 0.29 0.00 57 1010.5
20260904064144 65 23 0.0 0.0 0.00 0.29 0.00 57 1010.5
20260904063143 65 23 0.0 0.0 0.00 0.29 0.00 57 1010.5
20260904062143 66 22 0.0 0.0 0.00 0.29 0.00 57 1010.5
20260904061156 66 22 0.0 0.0 0.00 0.29 0.00 56 1010.6
20260904060145 66 23 0.0 0.0 0.00 0.29 0.00 56 1010.4
20260904055143 66 23 0.0 0.0 0.00 0.29 0.00 56 1010.6
20260904054145 66 23 0.0 0.0 0.00 0.29 0.00 56 1010.7
20260904053143 66 23 0.0 0.0 0.00 0.29 0.00 56 1010.8
20260904052144 67 23 0.0 0.0 0.00 0.29 0.00 56 1011.0
20260904051137 67 23 0.0 0.0 0.00 0.29 0.00 56 1011.0
20260904050149 67 23 0.0 0.0 0.00 0.29 0.00 56 1011.3
20260904045639 67 22 0.0 0.0 0.00 0.29 0.00 56 1011.4
20260904044139 67 22 0.0 0.0 0.00 0.29 0.00 56 1011.4
20260904043137 67 23 0.0 0.0 0.00 0.29 0.00 56 1011.6
20260904042637 67 23 0.0 0.0 0.00 0.29 0.00 56 1011.6
20260904041138 67 23 0.0 0.0 0.00 0.29 0.00 56 1011.6
20260904040138 67 20 0.0 0.0 0.00 0.29 0.00 56 1011.7
20260904035635 68 22 0.0 0.0 0.00 0.29 0.29 56 1011.8
20260904034128 68 20 0.0 0.0 0.00 0.29 0.29 56 1011.7
20260904033128 68 20 0.0 0.0 0.00 0.29 0.29 56 1011.9
20260904032130 68 36 0.0 0.0 0.00 0.29 0.29 56 1011.7
20260904031130 68 35 0.0 0.0 0.00 0.29 0.29 55 1011.5
20260904030129 69 36 0.0 0.0 0.00 0.29 0.29 55 1011.6
20260904025630 69 35 0.0 0.0 0.00 0.29 0.29 55 1011.7
20260904024129 69 35 0.0 0.0 0.00 0.29 0.29 55 1011.9
20260904023630 69 35 0.0 0.0 0.00 0.29 0.29 55 1011.9
20260904022631 69 36 0.0 0.0 0.00 0.29 0.29 55 1012.1
20260904021127 69 35 0.0 0.0 0.00 0.29 0.29 55 1011.9
20260904020127 70 35 0.0 0.0 0.00 0.29 0.29 55 1012.1
20260904015128 70 35 0.0 0.0 0.00 0.29 0.29 55 1012.2
20260904014629 70 36 0.0 0.0 0.00 0.29 0.29 55 1012.5
20260904013130 70 35 0.0 0.0 0.00 0.29 0.29 55 1012.6
20260904012128 70 35 0.0 0.0 0.00 0.29 0.29 55 1012.6
20260904011126 70 35 0.0 0.0 0.00 0.29 0.29 55 1012.6
20260904010124 70 35 0.0 0.0 0.00 0.29 0.29 55 1012.4
20260904005126 71 36 0.0 0.0 0.00 0.29 0.29 55 1012.2
20260904004125 71 35 0.0 0.0 0.00 0.29 0.29 56 1012.2
20260904003125 71 35 0.0 0.0 0.00 0.29 0.29 56 1012.0
20260904002126 71 35 0.0 0.0 0.00 0.29 0.29 56 1011.9
20260904001126 71 36 0.0 0.0 0.00 0.29 0.29 56 1011.7
20260904000627 72 35 0.0 0.0 0.00 0.29 0.29 57 1011.7